Location: Arroyo de Valdeoliva
(40.1604°N, 4.9878°W)
Time: 07:52:04
(UTC+00:00)

Cosmos 1825 Rocket - Pass Details

Date: 16 March 2026
Orbit: 596 x 624 km, 82.5° (Epoch: 18 April)

Event Time Altitude Azimuth Distance (km) Brightness Sun altitude
Rises 04:35:52 0° 15° (NNE) 2,897 7.5 -22.4°
Reaches altitude 10° 04:39:54 10° 52° (NE) 1,977 7.1 -21.6°
Maximum altitude 04:41:06 11° 68° (ENE) 1,908 7.2 -21.4°
Drops below altitude 10° 04:42:19 10° 84° (E) 1,969 7.3 -21.2°
Sets 04:46:16 0° 121° (ESE) 2,858 7.6 -20.5°
